�������l�o���
Date,Time,MP-1(��Sv/h),MP-2(��Sv/h),MP-3(��Sv/h),MP-4(��Sv/h),MP-5(��Sv/h),MP-6(��Sv/h),MP-7(��Sv/h),MP-8(��Sv/h),����,����(m/s),���J
2020/12/10,00:00,0.669,0.965,0.613,1.216,0.858,0.382,0.676,0.636,�쓌,1.7,��
2020/12/10,00:10,0.671,0.963,0.612,1.216,0.859,0.381,0.674,0.636,��,1.7,��
2020/12/10,00:20,0.669,0.964,0.612,1.215,0.856,0.381,0.673,0.636,��,1.1,��
2020/12/10,00:30,0.671,0.964,0.614,1.213,0.857,0.382,0.674,0.634,-,CALM,��
2020/12/10,00:40,0.671,0.966,0.611,1.216,0.857,0.382,0.675,0.636,-,CALM,��
2020/12/10,00:50,0.670,0.964,0.611,1.215,0.856,0.383,0.675,0.635,�k��,0.6,��
2020/12/10,01:00,0.671,0.965,0.613,1.216,0.856,0.384,0.676,0.636,�k�k��,0.9,��
2020/12/10,01:10,0.671,0.966,0.611,1.217,0.857,0.383,0.674,0.636,-,CALM,��
2020/12/10,01:20,0.671,0.968,0.614,1.217,0.860,0.383,0.674,0.635,-,CALM,��
2020/12/10,01:30,0.672,0.963,0.613,1.217,0.857,0.384,0.675,0.636,���k��,1.4,��
2020/12/10,01:40,0.673,0.966,0.612,1.216,0.859,0.382,0.675,0.635,��,1.9,��
2020/12/10,01:50,0.671,0.966,0.613,1.215,0.859,0.383,0.676,0.636,���k��,2.6,��
2020/12/10,02:00,0.671,0.964,0.612,1.216,0.858,0.383,0.675,0.634,���k��,2.3,��
2020/12/10,02:10,0.672,0.966,0.612,1.217,0.856,0.384,0.676,0.635,�k��,3.3,��
2020/12/10,02:20,0.672,0.965,0.613,1.216,0.858,0.385,0.675,0.635,���k��,3.3,��
2020/12/10,02:30,0.670,0.966,0.613,1.215,0.858,0.383,0.673,0.636,���k��,2.3,��
2020/12/10,02:40,0.674,0.966,0.612,1.220,0.856,0.383,0.676,0.636,���k��,2.0,��
2020/12/10,02:50,0.672,0.967,0.613,1.215,0.858,0.383,0.675,0.635,�k��,2.6,��
2020/12/10,03:00,0.674,0.966,0.612,1.219,0.858,0.383,0.674,0.635,�k��,3.0,��
2020/12/10,03:10,0.670,0.967,0.614,1.216,0.856,0.384,0.675,0.636,���k��,2.0,��
2020/12/10,03:20,0.672,0.965,0.613,1.218,0.856,0.383,0.676,0.636,���k��,1.7,��
2020/12/10,03:30,0.672,0.962,0.613,1.219,0.855,0.383,0.677,0.636,���k��,2.2,��
2020/12/10,03:40,0.672,0.966,0.613,1.215,0.859,0.383,0.675,0.637,���k��,2.6,��
2020/12/10,03:50,0.673,0.965,0.613,1.217,0.856,0.383,0.675,0.635,�k��,2.8,��
2020/12/10,04:00,0.672,0.964,0.612,1.216,0.858,0.384,0.676,0.636,�k��,2.3,��
2020/12/10,04:10,0.673,0.966,0.613,1.218,0.857,0.384,0.676,0.636,�k��,1.9,��
2020/12/10,04:20,0.672,0.966,0.614,1.217,0.857,0.383,0.676,0.637,�k��,1.7,��
2020/12/10,04:30,0.672,0.964,0.612,1.216,0.858,0.383,0.678,0.634,�k�k��,1.5,��
2020/12/10,04:40,0.675,0.965,0.613,1.216,0.857,0.382,0.674,0.636,�k��,1.2,��
2020/12/10,04:50,0.674,0.965,0.614,1.217,0.855,0.383,0.675,0.636,�k��,1.1,��
2020/12/10,05:00,0.672,0.966,0.614,1.219,0.858,0.384,0.675,0.636,-,CALM,��
2020/12/10,05:10,0.672,0.967,0.615,1.216,0.857,0.383,0.674,0.635,�k��,0.8,��
2020/12/10,05:20,0.672,0.965,0.612,1.216,0.858,0.384,0.674,0.636,�k�k��,0.9,��
2020/12/10,05:30,0.672,0.964,0.612,1.217,0.858,0.384,0.674,0.636,�k��,0.9,��
2020/12/10,05:40,0.672,0.965,0.613,1.214,0.857,0.384,0.676,0.637,�k�k��,1.1,��
2020/12/10,05:50,0.674,0.965,0.614,1.214,0.859,0.383,0.675,0.636,�k��,0.6,��
2020/12/10,06:00,0.673,0.967,0.614,1.216,0.857,0.384,0.675,0.636,�k�k��,1.1,�L
2020/12/10,06:10,0.671,0.965,0.611,1.218,0.857,0.384,0.677,0.636,�k�k��,1.2,��
2020/12/10,06:20,0.674,0.961,0.611,1.219,0.857,0.383,0.676,0.636,�k,0.9,��
2020/12/10,06:30,0.673,0.965,0.612,1.218,0.856,0.384,0.677,0.636,�k,0.6,��
2020/12/10,06:40,0.671,0.967,0.613,1.217,0.857,0.384,0.674,0.635,�k��,0.8,��
2020/12/10,06:50,0.673,0.965,0.613,1.215,0.857,0.384,0.675,0.636,�k��,1.5,��
2020/12/10,07:00,0.672,0.964,0.612,1.217,0.858,0.385,0.676,0.634,���k��,1.4,��
2020/12/10,07:10,0.674,0.967,0.611,1.214,0.857,0.383,0.677,0.636,�k��,1.1,��
2020/12/10,07:20,0.673,0.967,0.613,1.216,0.856,0.384,0.675,0.636,�k,0.8,�L
2020/12/10,07:30,0.674,0.965,0.613,1.217,0.859,0.384,0.676,0.635,-,CALM,��
2020/12/10,07:40,0.674,0.964,0.614,1.217,0.858,0.385,0.677,0.637,�쓌,0.9,��
2020/12/10,07:50,0.671,0.964,0.614,1.216,0.857,0.384,0.677,0.636,�쐼,0.6,�L
2020/12/10,08:00,0.674,0.964,0.614,1.217,0.857,0.383,0.675,0.635,��쐼,0.9,�L
2020/12/10,08:10,0.674,0.964,0.612,1.217,0.859,0.384,0.676,0.637,-,CALM,��
2020/12/10,08:20,0.674,0.964,0.613,1.217,0.855,0.383,0.678,0.637,-,CALM,��
2020/12/10,08:30,0.674,0.965,0.613,1.218,0.859,0.385,0.678,0.635,-,CALM,�L
2020/12/10,08:40,0.674,0.963,0.614,1.214,0.859,0.385,0.677,0.636,-,CALM,�L
2020/12/10,08:50,0.673,0.962,0.616,1.218,0.857,0.386,0.675,0.636,��,0.6,�L
2020/12/10,09:00,0.673,0.964,0.615,1.217,0.856,0.384,0.675,0.636,��,0.6,�L
2020/12/10,09:10,0.674,0.963,0.616,1.218,0.856,0.385,0.676,0.637,��,0.6,��
2020/12/10,09:20,0.673,0.958,0.614,1.218,0.858,0.384,0.677,0.636,���k��,1.7,�L
2020/12/10,09:30,0.674,0.960,0.613,1.219,0.856,0.384,0.678,0.638,�k��,2.5,��
2020/12/10,09:40,0.674,0.958,0.613,1.216,0.856,0.385,0.677,0.636,���k��,2.0,��
2020/12/10,09:50,0.673,0.959,0.612,1.215,0.855,0.382,0.676,0.633,���k��,1.9,��
2020/12/10,10:00,0.673,0.961,0.614,1.219,0.858,0.383,0.676,0.637,���k��,1.4,��
2020/12/10,10:10,0.671,0.960,0.614,1.218,0.855,0.384,0.676,0.635,���k��,1.5,��
2020/12/10,10:20,-,0.961,0.613,1.217,0.857,0.384,0.677,0.635,�k��,2.2,��
2020/12/10,10:30,-,0.962,0.613,1.217,0.855,0.384,0.676,0.637,���k��,2.5,�L
2020/12/10,10:40,-,0.962,0.613,1.217,0.856,0.383,0.676,0.636,�k��,2.0,�L
2020/12/10,10:50,-,0.954,0.616,1.217,0.855,0.384,0.677,0.638,�k��,1.9,�L
2020/12/10,11:00,-,0.935,0.612,1.217,0.856,0.384,0.676,0.636,���k��,1.5,�L
2020/12/10,11:10,-,0.939,0.614,1.218,0.858,0.384,0.676,0.635,�k��,1.5,�L
2020/12/10,11:20,-,0.938,0.617,1.219,0.858,0.386,0.677,0.636,�k��,1.4,�L
2020/12/10,11:30,-,0.942,0.615,1.217,0.857,0.384,0.679,0.636,�k��,0.8,�L
2020/12/10,11:40,-,0.942,0.615,1.217,0.855,0.385,0.678,0.638,�k��,0.6,�L
2020/12/10,11:50,-,0.940,0.616,1.218,0.857,0.386,0.676,0.636,���k��,0.6,�L
2020/12/10,12:00,-,0.961,0.615,1.219,0.857,0.385,0.678,0.637,��,0.6,�L
2020/12/10,12:10,-,0.968,0.615,1.216,0.858,0.386,0.678,0.636,��,0.6,�L
2020/12/10,12:20,-,0.963,0.614,1.218,0.856,0.384,0.674,0.636,-,CALM,�L
2020/12/10,12:30,-,0.965,0.615,1.216,0.855,0.386,0.677,0.638,�k�k��,0.6,�L
2020/12/10,12:40,-,0.961,0.616,1.217,0.856,0.384,0.676,0.637,�k��,0.8,�L
2020/12/10,12:50,0.672,0.965,0.615,1.215,0.855,0.385,0.677,0.637,�k��,1.5,�L
2020/12/10,13:00,0.672,0.962,0.615,1.217,0.857,0.384,0.677,0.636,�k��,0.9,��
2020/12/10,13:10,0.672,0.965,0.613,1.217,0.854,0.384,0.675,0.637,-,CALM,�L
2020/12/10,13:20,0.674,0.960,0.613,1.217,0.856,0.385,0.675,0.636,���쐼,0.9,�L
2020/12/10,13:30,0.675,0.957,0.615,1.218,0.856,0.386,0.676,0.636,��,1.5,�L
2020/12/10,13:40,0.673,0.958,0.613,1.217,0.856,0.385,0.677,0.636,���k��,2.0,��
2020/12/10,13:50,0.673,0.958,0.613,1.215,0.854,0.385,0.674,0.634,��,1.2,�L
2020/12/10,14:00,0.675,0.960,0.614,1.215,0.856,0.385,0.678,0.635,-,CALM,�L
2020/12/10,14:10,0.672,0.962,0.615,1.215,0.855,0.384,0.678,0.636,�쓌,0.9,��
2020/12/10,14:20,0.675,0.964,0.614,1.216,0.856,0.385,0.678,0.636,���쓌,0.6,��
2020/12/10,14:30,0.673,0.962,0.613,1.213,0.855,0.384,0.676,0.636,-,CALM,�L
2020/12/10,14:40,0.674,0.961,0.613,1.215,0.856,0.383,0.676,0.637,���쓌,2.0,�L
2020/12/10,14:50,0.675,0.959,0.614,1.216,0.857,0.384,0.676,0.635,���쓌,3.5,�L
2020/12/10,15:00,0.676,0.961,0.615,1.214,0.855,0.384,0.676,0.635,���쓌,1.7,��
2020/12/10,15:10,0.674,0.963,0.613,1.215,0.855,0.385,0.676,0.635,�k�k��,1.7,��
2020/12/10,15:20,0.675,0.960,0.613,1.215,0.857,0.384,0.675,0.636,�k�k��,1.5,��
2020/12/10,15:30,0.673,0.957,0.614,1.216,0.856,0.384,0.677,0.634,�k��,2.5,��
2020/12/10,15:40,0.673,0.961,0.612,1.216,0.856,0.385,0.676,0.635,�k��,2.6,��
2020/12/10,15:50,0.674,0.963,0.613,1.215,0.855,0.382,0.674,0.635,�k�k��,2.5,��
2020/12/10,16:00,0.671,0.965,0.612,1.217,0.855,0.384,0.677,0.636,�k��,2.3,��
2020/12/10,16:10,0.673,0.961,0.612,1.217,0.854,0.384,0.677,0.636,�k,3.0,��
2020/12/10,16:20,0.673,0.962,0.613,1.215,0.854,0.385,0.675,0.635,�k,3.4,��
2020/12/10,16:30,0.672,0.965,0.611,1.215,0.855,0.385,0.675,0.635,�k�k��,4.6,��
2020/12/10,16:40,0.674,0.963,0.613,1.215,0.854,0.384,0.674,0.636,�k�k��,6.1,��
2020/12/10,16:50,0.671,0.962,0.613,1.214,0.853,0.383,0.677,0.634,�k�k��,6.3,��
2020/12/10,17:00,0.671,0.959,0.612,1.215,0.855,0.382,0.674,0.635,�k�k��,5.3,��
2020/12/10,17:10,0.673,0.960,0.611,1.216,0.855,0.382,0.675,0.635,�k�k��,4.1,��
2020/12/10,17:20,0.670,0.962,0.613,1.213,0.852,0.384,0.674,0.636,�k�k��,4.0,��
2020/12/10,17:30,0.671,0.963,0.611,1.213,0.855,0.383,0.675,0.637,�k�k��,3.8,��
2020/12/10,17:40,0.672,0.961,0.610,1.214,0.851,0.383,0.676,0.637,�k�k��,2.9,��
2020/12/10,17:50,0.671,0.961,0.612,1.214,0.854,0.383,0.676,0.634,�k�k��,3.0,��
2020/12/10,18:00,0.672,0.962,0.612,1.214,0.855,0.384,0.676,0.636,�k�k��,2.8,��
2020/12/10,18:10,0.671,0.963,0.611,1.213,0.852,0.384,0.675,0.634,�k��,2.5,��
2020/12/10,18:20,0.672,0.961,0.610,1.217,0.854,0.383,0.676,0.633,�k�k��,2.3,��
2020/12/10,18:30,0.671,0.963,0.611,1.213,0.852,0.383,0.675,0.637,�k��,2.3,��
2020/12/10,18:40,0.671,0.961,0.612,1.213,0.854,0.382,0.676,0.635,�k�k��,2.0,��
2020/12/10,18:50,0.671,0.961,0.612,1.213,0.855,0.382,0.675,0.637,�k��,3.4,��
2020/12/10,19:00,0.672,0.962,0.613,1.216,0.853,0.384,0.676,0.636,�k��,3.8,��
2020/12/10,19:10,0.672,0.962,0.612,1.217,0.855,0.383,0.677,0.635,�k��,3.9,��
2020/12/10,19:20,0.671,0.961,0.611,1.214,0.853,0.383,0.676,0.635,�k��,3.9,��
2020/12/10,19:30,0.670,0.962,0.612,1.215,0.856,0.384,0.676,0.635,�k�k��,3.6,��
2020/12/10,19:40,0.671,0.960,0.611,1.214,0.854,0.383,0.676,0.635,�k�k��,4.6,��
2020/12/10,19:50,0.671,0.962,0.611,1.213,0.853,0.382,0.674,0.635,�k�k��,3.6,��
2020/12/10,20:00,0.673,0.964,0.612,1.213,0.854,0.383,0.675,0.637,�k�k��,3.7,��
2020/12/10,20:10,0.672,0.963,0.611,1.213,0.853,0.384,0.676,0.636,�k�k��,3.6,��
2020/12/10,20:20,0.673,0.960,0.612,1.214,0.856,0.384,0.675,0.635,�k��,3.3,��
2020/12/10,20:30,0.671,0.961,0.611,1.215,0.854,0.382,0.675,0.634,�k��,3.6,��
2020/12/10,20:40,0.671,0.962,0.612,1.215,0.854,0.383,0.675,0.634,�k��,4.5,��
2020/12/10,20:50,0.672,0.963,0.612,1.214,0.852,0.384,0.674,0.635,�k��,3.5,��
2020/12/10,21:00,0.671,0.960,0.610,1.216,0.857,0.383,0.674,0.635,�k��,3.8,��
2020/12/10,21:10,0.672,0.960,0.611,1.214,0.854,0.383,0.676,0.634,�k��,3.1,��
2020/12/10,21:20,0.670,0.959,0.611,1.215,0.852,0.381,0.675,0.635,�k�k��,2.8,��
2020/12/10,21:30,0.671,0.964,0.612,1.214,0.854,0.383,0.676,0.635,���k��,2.3,��
2020/12/10,21:40,0.670,0.961,0.612,1.213,0.854,0.384,0.675,0.636,�k��,2.5,��
2020/12/10,21:50,0.672,0.962,0.612,1.215,0.853,0.383,0.675,0.634,���k��,2.0,��
2020/12/10,22:00,0.670,0.964,0.611,1.215,0.853,0.384,0.674,0.633,�k��,1.5,��
2020/12/10,22:10,0.670,0.960,0.612,1.214,0.854,0.384,0.675,0.635,��,2.0,��
2020/12/10,22:20,0.671,0.961,0.611,1.214,0.854,0.385,0.675,0.635,�k��,2.0,��
2020/12/10,22:30,0.669,0.959,0.612,1.215,0.854,0.384,0.676,0.637,���k��,2.6,��
2020/12/10,22:40,0.671,0.962,0.611,1.216,0.852,0.382,0.674,0.635,���k��,5.3,��
2020/12/10,22:50,0.670,0.963,0.612,1.213,0.854,0.383,0.673,0.632,�k��,4.7,��
2020/12/10,23:00,0.670,0.960,0.611,1.212,0.853,0.382,0.675,0.634,�k��,4.3,��
2020/12/10,23:10,0.671,0.961,0.612,1.216,0.853,0.385,0.675,0.634,�k��,3.7,��
2020/12/10,23:20,0.671,0.962,0.612,1.215,0.851,0.384,0.675,0.635,�k��,2.6,��
2020/12/10,23:30,0.670,0.960,0.611,1.213,0.853,0.384,0.673,0.635,���k��,3.7,��
2020/12/10,23:40,0.669,0.960,0.611,1.213,0.853,0.382,0.675,0.635,���k��,3.8,��
2020/12/10,23:50,0.673,0.961,0.612,1.215,0.854,0.382,0.674,0.636,���k��,5.6,��
